{"data":{"norad_id":58212,"epoch":"2026-05-24T23:45:45.688032Z","epoch_age_seconds":86207,"freshness":"FRESH","line1":"1 58212U 23170G   26144.99011213  .00000242  00000+0  18310-4 0  9998","line2":"2 58212  43.0028 123.7265 0001126 297.2577  62.8160 15.27577407141961","mean_motion":15.27577407,"eccentricity":0.0001126,"inclination_deg":43.0028,"raan_deg":123.7265,"arg_perigee_deg":297.2577,"mean_anomaly_deg":62.816,"bstar":1.831e-5,"rev_number":14196,"period_min":94.266908727592,"perigee_km":482.28428999678,"apogee_km":483.82943085415,"semimajor_km":6861.1938604255,"source":"CELESTRAK","updated_at":"2026-05-25T13:38:18.575112Z"}}